Погода Терней

Погода Терней : погода сейчас, прогноз погоды и архив. Всё, что Вы хотите узнать о погоде Терней!

Хотите узнать прогноз погоды Терней? Тогда Вам сюда: Погода Терней

Поиск расширенной информации на нашем сайте:

Другие новости

Новости СМИ2

Главная страница сайта

Новости сайта

03.07.2017

Напоминаем, что на нашем специализированном сайте Метеоцентр.Азия вы можете получить высокодетализированные автоматические прогнозы погоды по пунктам России, СНГ и мира в авиационном формате (включающие направление и скорость ветра, видимость, явления погоды, количество и форму облачности, нижнюю и верхнюю границу облачности).


Погода Терней - сегодня

Время (UTC), дата Ветер
(°,м/с) 
Видим.   Явления Облачность Т
(°С)
Тd
(°С)
f(%) Тe
(°С)
Pmin
(гПа)
dP
(гПа)
Po
(мм)
O2
(г/м3)
Тmin Tmax R s Состояние
почвы
18 20.11.17 290 (З) 5{14}  20000 м    ясно 
-12.8 -24.5 37 -18  1020.8  1.6  759  323           
21 20.11.17 270 (З) 5{12}  20000 м    ясно 
-12.9 -23.9 39 -18  1022.8  761  323  -13.6      равномерный
мокрый или
старый снег
100% 
00 21.11.17 280 (З) 20000 м    3/0 средняя 
[Ac lent]
-10 -23.2 33 -15  1024.8  2.1  763  321           
03 21.11.17 270 (З) 3{10}  20000 м    6/0 верхняя 
[Cs]
-5.2 -22.6 24 -8  1022.7  -2  761  314           
06 21.11.17 090 (В) 20000 м    3/0 верхняя 
[Ci fib]
-3.1 -20.6 24 -3  1021  -1.7  760  311           
09 21.11.17 290 (З) 20000 м    ясно 
-8 -17.7 46 -8  1020.9  -0.2  760  317    -1       
12 21.11.17 290 (З) 20000 м    ясно 
-10.1 -18.7 49 -13  1020.1  -0.9  759  319           
15 21.11.17 270 (З) 20000 м    ясно 
-11.6 -18.8 55 -14  1018.6  -1.5  758  320           
18 21.11.17 330 (СЗ) 20000 м    8/8 600 м 
[Sc]
-10.2 -17.9 53 -10  1015.7  -2.8  756  318           
21 21.11.17 310 (СЗ) 20000 м    3/3 600 м 
[Sc]
-11 -17.1 61 -14  1012.4  -3.3  753  318  -12.4      равномерный
мокрый или
старый снег
100% 
00 22.11.17 320 (СЗ) 20000 м    ясно 
-8.9 -15.6 58 -12  1010.4  -1.9  752  314           
03 22.11.17 330 (СЗ) 20000 м    4/4 600 м 
[Sc]
-1.9 -11.9 46 -3  1007.3  -2.9  750  305           
06 22.11.17 320 (СЗ) 20000 м    3/3 600 м 
[Sc]
+3.4 -4.8 55 +4  1005.9  -1.2  749  298           
09 22.11.17 290 (З) 20000 м    ясно 
+1 -8.7 48 -1  1007  749  302    +3.9       
12 22.11.17 300 (СЗ) 6-10{10}  20000 м    ясно 
-0.6 -11.2 45 -4  1007.8  0.7  750  304           
15 22.11.17 290 (З) 5-10{13}  20000 м    3/0 средняя 
[Ac trans]
-2 -10.5 52 -5  1007.4  -0.4  750  305           
18 22.11.17 300 (СЗ) 5-10{14}  20000 м    ясно 
-4.3 -12.8 51 -8  1008.2  0.7  750  308           
21 22.11.17 280 (З) 4{12}  20000 м    ясно 
-5.5 -14.6 49 -9  1008.3  0.1  750  310  -5.5      равномерный
мокрый или
старый снег
100% 
00 23.11.17 280 (З) 6-11{12}  20000 м    ясно 
-3.7 -14.4 43 -8  1008.4  0.1  750  308  -6         
03 23.11.17 280 (З) 7-13{13}  20000 м    ясно 
-2 -14.5 38 -6  1006.8  -1.6  749  305           
06 23.11.17 310 (СЗ) 6-13{14}  20000 м    1/1 600 м 
[Sc]
-3.5 -16.5 36 -8  1007.1  0.3  749  307           
09 23.11.17 270 (З) 6{13}  20000 м    ясно 
-6.2 -16.8 43 -11  1008.5  1.3  750  311    -1.6       
12 23.11.17 290 (З) 6-10{12}  20000 м    ясно 
-7.2 -17.2 45 -12  1009.4  0.9  751  312           
15 23.11.17 290 (З) 7-15{16}  20000 м    ясно 
-8.1 -17.8 46 -14  1008.6  -0.9  750  313           
18 23.11.17 300 (СЗ) 6-13{16}  20000 м    ясно 
-9.2 -18.6 46 -14  1009  0.3  751  314           
Время (UTC), дата Ветер
(°,м/с) 
Видим.   Явления Облачность Т
(°С)
Тd
(°С)
f(%) Тe
(°С)
Pmin
(гПа)
dP
(гПа)
Po
(мм)
O2
(г/м3)
Тmin Tmax R s Состояние
почвы

Для получения пояснительной информации подведите курсор к названию столбца.

ПОГОДА Терней - архив

Всё, что Вы хотите узнать о погоде Терней - удобно и подробно!

Выберите нужную дату (начиная с 1 января 2015* года) и нажмите кнопку "Найти".
Будут отображены архивные сводки погоды по пункту Терней, начиная с указанной даты.


Отображать данные в формате CSV (для использования в таблицах Excel)


Внимание! Наш архив погоды предназначен исключительно для личного некоммерческого использования в познавательных целях. Если Вам необходимы официальные справки о состоянии погоды (для производственных, юридических, коммерческих и т.п. целей), обращайтесь в органы Росгидромета.

*Примечание: данная дата относится к архиву по метеостанциям СССР (Россия, СНГ, Балтия).
Архив по метеостанциям Зарубежной Европы и Азии (кроме Китая) хранится 10 дней, по другим регионам земного шара (Китай, Африка, Америка, Австралия, Океания) - 1 день.

Терней - район местоположения метеостанции


Название, широта, долгота, высота метеостанции:
Терней 45°ш. 136.6°д. 68 м над ур. моря [Российская Федерация]

Дополнительная информация

В oтличие oт бoльшинства пoгoдных сайтoв мы публикуем пoдрoбную метеoинфoрмацию в детальнoм прoфессиoнальнoм фoрмате.

Характеристики температуры и влажнoсти вoздуха измеряются на высoте 2 м в тени вдали oт зданий и деревьев.
Скoрoсть ветра измеряется на высoте 10 м (на урoвне рoста челoвека скoрoсть ветра ниже в 1.5-2 раза). Если метеoстанция нахoдится в гoрoде или в лесу, тo скoрoсть ветра занижена на 2-4 м/с пo сравнению с oткрытым местoм. Скoрoсть ветра над акватoриями крупных рек и oзёр, а также на вершинах хoлмoв на 2-5 м/с выше, чем в oбычных услoвиях.
Атмoсфернoе давление в разных тoчках местнoсти мoжет значительнo oтличаться oт давления на метеoстанции, в зависимoсти oт услoвий рельефа (при пoдъёме на 10 м давление пoнижается примернo на 1 мм рт.ст.).